[Date Prev][Date Next][Thread Prev][Thread Next] - [Date Index][Thread Index][Author Index]
2 Line ISS Keps 11-16
- Subject: [sarex] 2 Line ISS Keps 11-16
- From: "Dave Larsen PhD" <doc@xxxxxxxxxxx>
- Date: Tue, 15 Nov 2005 18:41:40 -0800
ISS
1 25544U 98067A 05319.84669411 .00016295 00000-0 12491-3 0 7606
2 25544 051.6452 203.5892 0008258 286.3309 164.9915 15.72235984399550
----
Via the sarex mailing list at AMSAT.ORG courtesy of AMSAT-NA.
To unsubscribe, send "unsubscribe sarex" to Majordomo@amsat.org
AMSAT Home